This is the latest recevied weather packets stored in our database for station/object KD9CCP. If no packets are shown the sender has not sent any weather packets the latest 10 day(s).
| Time | Temp. | Humidity | Pressure | Rain* | Wind** | Luminosity | Snow |
|---|---|---|---|---|---|---|---|
| 1778005058 | 5.56° C | 59% | 1009 hPa | 0 mm | - | 76 W/m² | - |
| 1778004756 | 5.56° C | 57% | 1008.6 hPa | 0 mm | - | 127 W/m² | - |
| 1778004451 | 5° C | 58% | 1008.4 hPa | 0 mm | - | 92 W/m² | - |
| 1778004148 | 5° C | 61% | 1008.4 hPa | 0 mm | - | 81 W/m² | - |
| 1778003845 | 5° C | 57% | 1008.9 hPa | 0 mm | - | 82 W/m² | - |
| 1778003541 | 5° C | 62% | 1008.6 hPa | 0 mm | - | 143 W/m² | - |
| 1778003238 | 5° C | 55% | 1008.5 hPa | 0 mm | - | 119 W/m² | - |
| 1778002935 | 5° C | 59% | 1008.6 hPa | 0 mm | - | 87 W/m² | - |
| 1778002631 | 5° C | 58% | 1008.5 hPa | 0 mm | - | 77 W/m² | - |
| 1778002328 | 5° C | 54% | 1008.6 hPa | 0 mm | - | 75 W/m² | - |
| 1778002025 | 5° C | 55% | 1008.5 hPa | 0 mm | - | 95 W/m² | - |
| 1778001722 | 5° C | 58% | 1008.4 hPa | 0 mm | - | 92 W/m² | - |
| 1778001422 | 5° C | 55% | 1008.4 hPa | 0 mm | - | 87 W/m² | - |
| 1778001119 | 5° C | 55% | 1008.4 hPa | 0 mm | - | 211 W/m² | - |
| 1778000816 | 5° C | 60% | 1008.4 hPa | 0 mm | - | 117 W/m² | - |
| 1778000513 | 5° C | 57% | 1008.3 hPa | 0 mm | - | 72 W/m² | - |
| 1778000212 | 5° C | 61% | 1008.2 hPa | 0 mm | - | 108 W/m² | - |
| 1777999909 | 5° C | 61% | 1008.2 hPa | 0 mm | - | 88 W/m² | - |
| 1777999604 | 5° C | 60% | 1008.4 hPa | 0 mm | - | 58 W/m² | - |
| 1777999302 | 5° C | 60% | 1008 hPa | 0 mm | - | 78 W/m² | - |
| 1777999000 | 4.44° C | 62% | 1008.1 hPa | 0 mm | - | 120 W/m² | - |
| 1777998698 | 4.44° C | 63% | 1008.1 hPa | 0 mm | - | 57 W/m² | - |
| 1777998395 | 4.44° C | 64% | 1008.3 hPa | 0 mm | - | 54 W/m² | - |
| 1777998093 | 5° C | 65% | 1008.1 hPa | 0 mm | - | 81 W/m² | - |
| 1777997789 | 5° C | 58% | 1008 hPa | 0 mm | - | 57 W/m² | - |
* Rain latest hour (hover to see other rain measurements)
** Current wind speed in m/s (hover to see current wind gust speed)